Location: Rounton
(54.4000°N, 1.3500°W)
Time: 04:13:35
(UTC+00:00)

A-11 Canister half - Pass Details

Date: 06 December 2021
Orbit: 1524 x 1684 km, 47.3° (Epoch: 17 January)

Event Time Altitude Azimuth Distance (km) Brightness Sun altitude
Exits shadow 02:41:09 39° 116° (ESE) 2,325 9.9 -45.7°
Drops below altitude 10° 02:47:16 10° 92° (E) 3,889 11.6 -44.9°
Sets 02:50:27 0° 88° (E) 4,857 12.3 -44.5°
